Powrót do katalogu

COSMOS 2251 DEB

AktywnyLEO
NORAD 35885·DEBRIS·🇷🇺 Russia

Wystrzelony Jun 16, 1993 z Plesetsk Cosmodrome

Loading…

Następne Przeloty (najbliższe 24 godziny)

TLE

ŚwieżeSource: Space-Track

Epoka: Sep 14, 2026, 09:02 UTC

1 35885U 93036ATY 26257.37666644  .00000417  00000-0  14626-3 0  9998
2 35885  74.0282 147.0989 0023846 167.2129 192.9635 14.37914211689778

Śledź COSMOS 2251 DEB w czasie rzeczywistym z AllMySat

Download on the App Store